FW5449 Weather Reports


time (UTC)temp
C
wind
direction
speed
KPH
gust
KPH
rain 1hr
cm
rain 24hr
cm
rain mn
cm
humidity
%
barometer
mb
20260905042243 13 108 1.6 9.7 0.00 1.83 1.63 93 1014.9
20260905041740 13 120 3.2 9.7 0.00 1.83 1.63 93 1014.8
20260905041239 13 118 1.6 6.4 0.00 1.83 1.63 93 1014.7
20260905040738 13 132 0.0 1.6 0.00 1.83 1.63 93 1014.7
20260905040233 13 132 1.6 1.6 0.00 1.83 1.63 93 1014.7
20260905035732 13 132 1.6 1.6 0.00 1.83 1.63 93 1014.7
20260905035230 13 132 1.6 1.6 0.00 1.83 1.63 93 1014.7
20260905034731 13 132 1.6 1.6 0.00 1.83 1.63 93 1014.6
20260905034229 13 116 1.6 1.6 0.00 1.83 1.63 93 1014.6
20260905033727 13 126 1.6 1.6 0.00 1.83 1.63 93 1014.5
20260905033231 13 122 1.6 1.6 0.00 1.83 1.63 93 1014.4
20260905032715 13 122 1.6 1.6 0.00 1.83 1.63 93 1014.2
20260905032444 13 122 1.6 1.6 0.00 1.83 1.63 93 1014.3
20260905031717 13 122 1.6 1.6 0.00 1.85 1.63 93 1014.2
20260905031214 13 122 0.0 1.6 0.00 1.85 1.63 93 1014.1
20260905031201 13 104 0.0 1.6 0.03 1.85 1.63 93 1014.0
20260905030428 13 96 1.6 1.6 0.03 1.85 1.63 93 1014.1
20260905025700 13 135 1.6 1.6 0.03 1.85 1.63 93 1014.0
20260905025435 13 135 0.0 1.6 0.03 1.85 1.63 92 1014.0
20260905024647 13 135 0.0 1.6 0.05 1.85 1.63 92 1014.0
20260905024137 13 135 1.6 1.6 0.05 1.85 1.63 92 1014.0
20260905023626 13 135 1.6 1.6 0.05 1.85 1.63 92 1013.9
20260905023109 13 135 1.6 1.6 0.08 1.85 1.63 91 1013.8
20260905022606 13 133 1.6 1.6 0.08 1.85 1.63 91 1013.8
20260905022324 14 144 1.6 1.6 0.08 1.85 1.63 91 1013.8
20260905021602 14 145 1.6 1.6 0.08 1.85 1.63 92 1013.8
20260905021101 14 134 1.6 1.6 0.08 1.85 1.63 92 1013.8
20260905020823 14 129 1.6 1.6 0.05 1.83 1.60 92 1013.8
20260905020313 14 127 1.6 1.6 0.05 1.83 1.60 92 1013.8
20260905015556 14 149 1.6 1.6 0.05 1.83 1.60 92 1013.6
20260905015054 14 139 1.6 1.6 0.03 1.80 1.60 92 1013.5
20260905014550 14 140 1.6 1.6 0.03 1.80 1.57 93 1013.6
20260905014050 15 135 1.6 1.6 0.03 1.80 1.57 93 1013.5
20260905013807 15 123 1.6 1.6 0.03 1.80 1.57 93 1013.5
20260905013313 15 128 1.6 1.6 0.03 1.78 1.57 93 1013.4
20260905012546 15 127 1.6 1.6 0.03 1.80 1.55 92 1013.4
20260905012047 15 94 1.6 1.6 0.03 1.80 1.55 92 1013.4
20260905011546 15 131 1.6 1.6 0.05 1.85 1.55 92 1013.3
20260905011044 15 147 1.6 1.6 0.05 1.88 1.55 92 1013.3
20260905010807 15 101 1.6 1.6 0.05 1.91 1.55 92 1013.4
20260905010041 15 131 1.6 1.6 0.08 1.91 1.55 92 1013.3
20260905005541 15 116 1.6 1.6 0.08 1.96 1.55 92 1013.3
20260905005037 15 124 1.6 1.6 0.08 1.98 1.55 92 1013.3
20260905004532 15 133 1.6 1.6 0.08 1.98 1.55 92 1013.1
20260905004032 15 117 1.6 1.6 0.08 2.01 1.55 92 1013.1
20260905003531 14 118 1.6 1.6 0.10 2.01 1.55 92 1013.2
20260905003032 14 126 0.0 1.6 0.08 1.98 1.52 92 1013.1
20260905002531 14 126 0.0 1.6 0.10 1.98 1.52 92 1012.9
20260905002032 14 120 1.6 1.6 0.10 1.96 1.52 92 1013.0
20260905001533 14 137 1.6 1.6 0.13 1.96 1.50 93 1012.8
20260905001031 14 132 1.6 1.6 0.18 1.96 1.50 92 1012.8
20260905000531 14 157 0.0 1.6 0.20 1.96 1.50 92 1012.8
20260905000033 14 130 0.0 1.6 0.20 1.93 1.47 92 1012.8
20260904235530 14 133 0.0 1.6 0.20 1.93 1.47 92 1012.8
20260904235025 14 127 0.0 1.6 0.20 1.93 1.47 93 1012.8
20260904234757 14 132 1.6 1.6 0.20 1.93 1.47 92 1012.9
20260904234026 14 131 1.6 1.6 0.23 1.93 1.47 92 1012.8
20260904233521 14 124 1.6 1.6 0.20 1.91 1.47 93 1012.8
20260904233022 14 122 1.6 1.6 0.20 1.91 1.45 92 1012.8
20260904232512 14 137 1.6 1.6 0.18 1.88 1.42 92 1012.9
20260904232015 14 139 1.6 1.6 0.18 1.85 1.40 92 1012.8
20260904231512 14 151 1.6 1.6 0.15 1.80 1.35 92 1012.8
20260904231216 14 128 1.6 1.6 0.15 1.75 1.30 92 1012.8
20260904231059 14 157 1.6 1.6 0.15 1.78 1.32 91 1012.8
20260904230443 14 184 1.6 1.6 0.15 1.73 1.27 92 1012.7
20260904225500 14 195 1.6 1.6 0.15 1.73 1.27 91 1012.7
20260904224947 14 181 1.6 1.6 0.18 1.73 1.27 91 1012.7
20260904224450 14 174 1.6 1.6 0.18 1.73 1.27 91 1012.6
20260904223944 14 133 1.6 1.6 0.18 1.70 1.24 91 1012.6
20260904223444 14 150 1.6 1.6 0.23 1.70 1.24 91 1012.5
20260904222944 14 163 1.6 1.6 0.28 1.70 1.24 91 1012.6
20260904222435 14 155 1.6 1.6 0.30 1.70 1.24 91 1012.6
20260904221933 14 139 1.6 1.6 0.30 1.68 1.22 91 1012.6
20260904221700 15 164 1.6 1.6 0.30 1.65 1.19 92 1012.6
20260904220935 15 174 1.6 1.6 0.28 1.63 1.17 92 1012.6
20260904220433 14 147 1.6 1.6 0.28 1.60 1.14 92 1012.4
20260904215934 14 188 1.6 1.6 0.25 1.57 1.12 93 1012.5
20260904215427 14 141 0.0 1.6 0.28 1.70 1.12 93 1012.4
20260904214917 14 224 0.0 1.6 0.28 1.73 1.09 93 1012.5
20260904214416 14 227 1.6 1.6 0.30 1.93 1.09 93 1012.5
20260904213906 14 234 1.6 1.6 0.28 1.98 1.07 92 1012.5
20260904213350 14 197 1.6 3.2 0.25 1.96 1.02 92 1012.6
20260904213111 15 243 1.6 4.8 0.23 1.91 0.97 93 1012.5
20260904212608 15 237 3.2 4.8 0.23 1.88 0.94 92 1012.4
20260904211853 15 239 1.6 4.8 0.20 1.85 0.91 92 1012.3
20260904211822 15 237 1.6 4.8 0.20 1.83 0.89 92 1012.2
20260904210840 15 238 1.6 4.8 0.20 1.83 0.89 92 1012.3
20260904210605 15 262 0.0 1.6 0.18 1.80 0.86 92 1012.2
20260904205842 15 262 0.0 4.8 0.18 1.80 0.86 92 1012.2
20260904205334 15 263 1.6 4.8 0.18 1.78 0.84 91 1012.2
20260904205055 15 262 1.6 3.2 0.15 1.75 0.84 91 1012.1
20260904204334 15 238 0.0 1.6 0.13 1.73 0.81 91 1012.0
20260904203832 15 242 0.0 1.6 0.13 1.73 0.79 91 1012.0
20260904203328 15 242 1.6 4.8 0.10 1.70 0.76 90 1011.9
20260904202820 15 242 1.6 4.8 0.08 1.68 0.74 89 1011.9
20260904202753 15 245 1.6 4.8 0.05 1.65 0.71 90 1011.9
20260904202044 15 195 1.6 6.4 0.05 1.65 0.71 89 1011.9
20260904201314 15 193 1.6 6.4 0.03 1.63 0.69 87 1011.9
20260904200814 15 195 1.6 6.4 0.03 1.63 0.69 88 1012.0
20260904200311 15 174 3.2 9.7 0.03 1.63 0.69 88 1012.0
20260904195808 15 192 4.8 9.7 0.03 1.63 0.69 86 1012.0
20260904195307 15 198 6.4 16.1 0.00 1.60 0.66 86 1011.9
20260904195033 15 202 8.0 16.1 0.00 1.60 0.66 84 1012.0
20260904194524 15 189 8.0 19.3 0.00 1.60 0.66 83 1012.0
20260904193805 16 162 8.0 19.3 0.00 1.60 0.66 81 1012.0
20260904193306 16 210 6.4 14.5 0.00 1.60 0.66 81 1012.0
20260904192807 16 147 6.4 12.9 0.00 1.60 0.66 82 1012.0
20260904192306 16 173 8.0 16.1 0.00 1.60 0.66 81 1011.9
20260904192031 16 166 9.7 16.1 0.00 1.60 0.66 80 1011.9
20260904191301 16 178 9.7 20.9 0.00 1.60 0.66 81 1011.9
20260904190800 16 133 9.7 20.9 0.00 1.60 0.66 81 1011.9
20260904190300 16 172 8.0 12.9 0.00 1.60 0.66 82 1011.9
20260904185759 16 145 8.0 16.1 0.00 1.60 0.66 83 1011.9
20260904185306 16 153 8.0 16.1 0.00 1.60 0.66 82 1011.9
20260904184801 16 153 6.4 16.1 0.00 1.60 0.66 83 1011.8
20260904184517 16 172 8.0 17.7 0.00 1.60 0.66 85 1011.9
20260904183755 15 140 9.7 17.7 0.00 1.60 0.66 85 1011.8
20260904183256 15 155 11.3 17.7 0.00 1.60 0.66 83 1011.8
20260904182755 15 153 9.7 17.7 0.00 1.60 0.66 84 1011.7
20260904182254 15 162 8.0 14.5 0.03 1.60 0.66 84 1011.7
20260904182016 15 126 8.0 14.5 0.03 1.60 0.66 85 1011.7
20260904181254 15 163 8.0 14.5 0.03 1.60 0.66 86 1011.7
20260904181013 15 135 8.0 14.5 0.03 1.60 0.66 87 1011.5
20260904180251 15 165 8.0 12.9 0.03 1.60 0.66 87 1011.6
20260904175752 15 137 6.4 12.9 0.03 1.60 0.66 87 1011.6
20260904175250 14 135 6.4 12.9 0.03 1.60 0.66 89 1011.5
20260904174753 14 116 4.8 11.3 0.05 1.60 0.66 89 1011.6
20260904174249 14 151 4.8 11.3 0.05 1.60 0.66 89 1011.5
20260904173750 14 160 6.4 11.3 0.08 1.60 0.66 89 1011.5
20260904173246 13 153 6.4 12.9 0.10 1.60 0.66 89 1011.5
20260904172747 14 135 6.4 12.9 0.13 1.60 0.66 89 1011.5
20260904172247 14 131 4.8 12.9 0.13 1.57 0.64 90 1011.4
20260904171748 14 135 3.2 8.0 0.15 1.57 0.64 91 1011.4
20260904171250 13 134 3.2 8.0 0.20 1.57 0.64 91 1011.4
20260904170745 13 95 3.2 9.7 0.23 1.57 0.64 92 1011.4
20260904170245 13 106 3.2 9.7 0.23 1.57 0.64 92 1011.2
20260904165747 13 124 1.6 6.4 0.23 1.57 0.64 92 1011.2
20260904165244 13 117 1.6 6.4 0.23 1.57 0.64 92 1011.2
20260904164745 13 98 1.6 6.4 0.20 1.55 0.64 92 1011.2
20260904164243 13 110 1.6 6.4 0.23 1.55 0.61 92 1011.1
20260904163741 13 146 1.6 4.8 0.20 1.52 0.58 91 1011.2
20260904163238 13 146 1.6 4.8 0.18 1.50 0.56 91 1011.3
20260904162738 13 146 3.2 4.8 0.15 1.47 0.53 90 1011.3
20260904162506 13 146 1.6 4.8 0.13 1.45 0.51 90 1011.2
20260904161958 13 135 0.0 3.2 0.10 1.42 0.48 90 1011.1
20260904161226 13 135 0.0 1.6 0.05 1.37 0.46 90 1011.1
20260904161140 13 135 0.0 6.4 0.03 1.35 0.41 89 1011.1
20260904160425 13 136 0.0 6.4 0.03 1.35 0.41 88 1011.0
20260904155641 13 136 1.6 8.0 0.03 1.35 0.41 88 1011.0
20260904155129 13 136 1.6 8.0 0.03 1.35 0.41 87 1011.0
20260904154611 13 122 1.6 4.8 0.00 1.32 0.38 89 1011.0
20260904154103 13 116 1.6 8.0 0.00 1.32 0.38 88 1010.9
20260904153602 13 120 1.6 9.7 0.00 1.32 0.38 88 1010.9
20260904153054 13 138 1.6 9.7 0.00 1.32 0.38 89 1010.8
20260904152549 13 135 1.6 6.4 0.00 1.32 0.38 88 1010.8
20260904152048 13 140 3.2 8.0 0.00 1.32 0.38 88 1010.8
20260904151549 13 119 3.2 11.3 0.00 1.32 0.38 88 1010.7
20260904151310 12 127 4.8 11.3 0.00 1.32 0.38 88 1010.7
20260904150817 12 151 4.8 11.3 0.00 1.32 0.38 89 1010.6
20260904150304 12 122 3.2 11.3 0.00 1.32 0.38 89 1010.6
20260904145544 12 139 4.8 11.3 0.00 1.32 0.38 89 1010.5
20260904145047 12 135 4.8 11.3 0.00 1.32 0.38 89 1010.5
20260904144546 12 104 3.2 9.7 0.00 1.32 0.38 89 1010.3
20260904144044 12 122 3.2 6.4 0.00 1.32 0.38 90 1010.4
20260904143544 12 100 3.2 6.4 0.00 1.32 0.38 90 1010.4
20260904143044 12 123 3.2 8.0 0.00 1.32 0.38 90 1010.3
20260904142545 12 129 3.2 8.0 0.00 1.32 0.38 91 1010.2
20260904142039 12 135 1.6 6.4 0.00 1.32 0.38 91 1010.1
20260904141536 12 133 1.6 6.4 0.00 1.32 0.38 92 1010.0
20260904141037 12 122 0.0 3.2 0.00 1.32 0.38 92 1010.0
20260904140757 12 110 0.0 3.2 0.00 1.32 0.38 93 1009.9
20260904140030 11 113 0.0 4.8 0.00 1.32 0.38 93 1009.9
20260904135529 11 99 0.0 4.8 0.00 1.32 0.38 93 1009.9
20260904135030 11 82 0.0 3.2 0.00 1.32 0.38 93 1009.8
20260904134531 11 82 0.0 1.6 0.00 1.32 0.38 93 1009.8
20260904134033 11 145 0.0 1.6 0.00 1.32 0.38 93 1009.7
20260904133531 11 145 0.0 1.6 0.00 1.32 0.38 93 1009.6
20260904133031 11 145 0.0 0.0 0.00 1.32 0.38 93 1009.4
20260904132533 11 145 0.0 0.0 0.00 1.32 0.38 93 1009.4
20260904132027 11 145 0.0 0.0 0.00 1.32 0.38 92 1009.4
20260904131513 11 145 0.0 1.6 0.03 1.32 0.38 91 1009.4
20260904131013 11 145 0.0 3.2 0.03 1.32 0.38 91 1009.4
20260904130506 11 145 0.0 3.2 0.03 1.32 0.38 91 1009.2
20260904125953 11 145 1.6 6.4 0.03 1.32 0.38 91 1009.3
20260904125721 11 145 1.6 6.4 0.03 1.32 0.38 91 1009.2
20260904125439 11 141 1.6 4.8 0.03 1.32 0.38 91 1009.2
20260904124455 11 141 1.6 6.4 0.03 1.32 0.38 91 1009.2
20260904123952 11 138 1.6 6.4 0.03 1.32 0.38 91 1009.1
20260904123445 12 133 3.2 6.4 0.03 1.32 0.38 91 1009.1
20260904122945 12 145 4.8 6.4 0.03 1.32 0.38 90 1009.1
20260904122445 12 138 4.8 6.4 0.03 1.32 0.38 90 1009.1
20260904122210 12 137 3.2 6.4 0.03 1.32 0.38 91 1009.1
20260904121446 12 139 1.6 4.8 0.00 1.30 0.36 91 1009.1
20260904120945 12 145 0.0 4.8 0.00 1.30 0.36 92 1009.2
20260904120447 12 154 0.0 3.2 0.00 1.30 0.36 92 1009.1
20260904115935 12 142 0.0 4.8 0.00 1.30 0.36 92 1009.1
20260904115435 12 142 1.6 6.4 0.00 1.30 0.36 91 1009.0
20260904114930 12 142 3.2 8.0 0.00 1.30 0.36 91 1009.1
20260904114432 12 131 3.2 8.0 0.00 1.30 0.36 92 1009.1
20260904114149 12 134 1.6 4.8 0.00 1.30 0.36 92 1009.0
20260904113423 12 133 1.6 4.8 0.00 1.30 0.36 92 1008.9
20260904112921 12 134 1.6 4.8 0.00 1.30 0.36 92 1008.8
20260904112414 12 143 1.6 4.8 0.00 1.30 0.36 92 1008.8
20260904111912 12 139 1.6 4.8 0.00 1.30 0.36 92 1008.8
20260904111407 12 130 1.6 4.8 0.00 1.30 0.36 92 1008.8
20260904110853 12 154 0.0 4.8 0.00 1.30 0.36 92 1008.8
20260904110614 12 154 1.6 8.0 0.00 1.30 0.36 92 1008.8
20260904105853 12 108 0.0 8.0 0.00 1.30 0.36 92 1008.8
20260904105827 12 136 0.0 3.2 0.00 1.30 0.36 92 1008.7
20260904104837 12 114 1.6 6.4 0.00 1.30 0.36 92 1008.6
20260904104331 12 104 3.2 6.4 0.00 1.30 0.36 92 1008.6
20260904103831 12 135 3.2 8.0 0.00 1.30 0.36 92 1008.7
20260904103822 12 120 3.2 8.0 0.00 1.30 0.36 92 1008.7
20260904102829 12 148 1.6 6.4 0.00 1.30 0.36 92 1008.7
20260904102328 12 126 1.6 6.4 0.00 1.30 0.36 92 1008.7
20260904101826 12 141 0.0 6.4 0.00 1.30 0.36 92 1008.8
20260904101326 12 141 1.6 4.8 0.00 1.30 0.36 92 1008.7
20260904100823 12 141 0.0 4.8 0.00 1.30 0.36 92 1008.7
20260904100548 12 141 0.0 3.2 0.00 1.30 0.36 92 1008.7
20260904095815 12 141 0.0 3.2 0.00 1.30 0.36 92 1008.7
20260904095300 12 141 1.6 4.8 0.00 1.30 0.36 92 1008.6
20260904095003 12 141 3.2 6.4 0.00 1.30 0.36 92 1008.7
20260904094242 12 124 3.2 6.4 0.00 1.30 0.36 92 1008.8
20260904093735 12 149 3.2 9.7 0.00 1.30 0.36 92 1008.7
20260904093233 12 155 3.2 9.7 0.00 1.30 0.36 92 1008.7
20260904092734 12 143 4.8 11.3 0.00 1.30 0.36 92 1008.6
20260904092233 12 143 4.8 11.3 0.00 1.30 0.36 91 1008.7
20260904091815 12 143 4.8 16.1 0.00 1.30 0.36 91 1008.7
20260904091731 12 126 4.8 16.1 0.00 1.30 0.36 91 1008.6
20260904091503 12 129 6.4 16.1 0.00 1.30 0.36 91 1008.6
20260904090447 12 156 8.0 19.3 0.03 1.30 0.36 91 1008.6
20260904085723 12 118 8.0 19.3 0.03 1.30 0.36 91 1008.6
20260904085217 12 134 8.0 16.1 0.10 1.30 0.36 92 1008.7
20260904084716 12 147 8.0 16.1 0.15 1.30 0.36 92 1008.6
20260904084216 12 137 8.0 16.1 0.18 1.30 0.36 92 1008.6
20260904083716 12 154 8.0 16.1 0.20 1.30 0.36 92 1008.6
20260904083214 12 122 8.0 17.7 0.23 1.30 0.36 92 1008.4
20260904082713 12 112 8.0 17.7 0.28 1.30 0.36 92 1008.5
20260904082212 12 102 8.0 19.3 0.30 1.30 0.36 92 1008.5
20260904081716 12 121 8.0 19.3 0.36 1.30 0.36 93 1008.5
20260904081436 12 121 8.0 16.1 0.36 1.30 0.36 93 1008.6
20260904080711 12 93 8.0 16.1 0.36 1.30 0.36 93 1008.4
20260904080210 12 122 8.0 16.1 0.33 1.27 0.33 93 1008.5
20260904080156 12 96 6.4 14.5 0.33 1.27 0.33 93 1008.7
20260904075212 12 87 4.8 12.9 0.25 1.19 0.28 93 1008.7
20260904074710 12 87 3.2 9.7 0.20 1.14 0.23 92 1008.6
20260904074208 12 108 1.6 6.4 0.18 1.12 0.18 92 1008.9
20260904073706 12 128 1.6 4.8 0.18 1.09 0.15 92 1008.9
20260904073205 12 144 1.6 9.7 0.15 1.07 0.13 92 1008.9
20260904072706 12 159 3.2 9.7 0.10 1.02 0.08 91 1008.9
20260904072209 12 154 6.4 12.9 0.08 0.99 0.05 90 1008.9
20260904071703 12 168 6.4 12.9 0.03 0.94 0.00 89 1008.6
20260904071202 12 128 6.4 16.1 0.03 0.94 0.00 89 1008.6
20260904070703 12 126 6.4 16.1 0.05 0.94 0.00 90 1008.5
20260904070203 12 123 6.4 14.5 0.05 0.94 0.00 90 1008.3
20260904065921 12 118 6.4 14.5 0.05 0.94 0.94 90 1008.3
20260904065201 12 115 4.8 14.5 0.05 0.94 0.94 90 1008.3
20260904064700 12 131 4.8 12.9 0.05 0.94 0.94 90 1008.3
20260904064159 12 134 3.2 12.9 0.08 0.94 0.94 91 1008.2
20260904064149 12 131 3.2 8.0 0.05 0.91 0.91 91 1008.3
20260904063416 12 101 4.8 11.3 0.05 0.91 0.91 91 1008.3
20260904063252 12 145 3.2 11.3 0.05 0.91 0.91 91 1008.4
20260904062200 12 95 4.8 11.3 0.08 0.91 0.91 91 1008.3
20260904061657 12 104 4.8 11.3 0.10 0.91 0.91 91 1008.2
20260904061159 12 104 4.8 12.9 0.10 0.91 0.91 91 1008.2
20260904060652 12 82 4.8 12.9 0.10 0.89 0.89 91 1008.4
20260904060411 12 106 4.8 12.9 0.13 0.89 0.89 91 1008.4
20260904055650 12 103 4.8 9.7 0.13 0.89 0.89 91 1008.4
20260904055144 12 91 3.2 9.7 0.13 0.89 0.89 92 1008.5
20260904054640 12 76 1.6 8.0 0.15 0.89 0.89 92 1008.5
20260904054633 12 83 3.2 11.3 0.13 0.86 0.86 92 1008.5
20260904053641 12 79 3.2 14.5 0.13 0.86 0.86 92 1008.6
20260904053130 12 104 3.2 14.5 0.13 0.86 0.86 92 1008.7
20260904052611 12 109 1.6 6.4 0.10 0.84 0.84 92 1008.7
20260904052112 12 99 0.0 3.2 0.10 0.84 0.84 92 1008.8
20260904051606 12 172 0.0 1.6 0.08 0.81 0.81 92 1008.8
20260904051056 13 172 0.0 4.8 0.08 0.81 0.81 92 1009.0
20260904050820 13 174 1.6 6.4 0.05 0.79 0.79 91 1009.0
20260904050050 13 137 3.2 6.4 0.03 0.76 0.76 91 1009.0
20260904045550 13 128 3.2 8.0 0.03 0.76 0.76 91 1009.0
20260904045048 13 125 3.2 8.0 0.03 0.76 0.76 91 1008.9
20260904044549 13 84 3.2 8.0 0.00 0.74 0.74 90 1008.9
20260904044046 13 124 4.8 9.7 0.00 0.74 0.74 90 1008.9
20260904043548 13 165 4.8 9.7 0.00 0.74 0.74 90 1008.9
20260904043046 13 141 4.8 9.7 0.00 0.74 0.74 90 1008.8